Regional Weather Roundup
Issued by NWS Austin/San Antonio, TX

Home | Current Version | Previous Version | Text Only | Print | Product List | Glossary On
Versions: 1 2 3 4 5 6 7 8 9 10 11 12 13 14 15 16 17 18 19 20 21 22 23 24 25 26 27 28 29 30 31 32 33 34 35 36 37 38 39 40 41 42 43 44 45 46 47 48 49 50
869
ASUS44 KEWX 191510
RWREWX
SOUTH TEXAS REGIONAL WEATHER ROUNDUP
NATIONAL WEATHER SERVICE AUSTIN/SAN ANTONIO TX
1000 AM CDT THU OCT 19 2017

NOTE: "FAIR" INDICATED FEW OR NO CLOUDS BELOW 12,000 FEET WITH NO
SIGNIFICANT WEATHER AND/OR OBSTRUCTIONS TO VISIBILITY.

* - THESE STATIONS ARE NOT NWS OR FAA STATIONS...AND ARE NOT SUBJECT
    TO NWS AND FAA QUALITY CONTROL.

TXZ171-172-183>190-191600-
TEXAS HILL COUNTRY AND EDWARDS PLATEAU

CITY           SKY/WX    TMP DP  RH WIND       PRES   REMARKS
JUNCTION       SUNNY     64  56  75 CALM      30.15R
*LLANO         MOSUNNY   63  57  82 CALM      30.20R
BURNET           N/A     66  61  84 S5        30.19R
*HORSESHOE BAY MOSUNNY   66  60  83 CALM      30.16R
*KERRVILLE     PTSUNNY   64  61  90 CALM      30.16R
*FREDERICKSBRG MOSUNNY   67  60  77 S6        30.16S
*ROCKSPRINGS   NOT AVBL
*BOERNE STAGE  MOSUNNY   63  61  94 CALM      30.17R
*CASTROVILLE   PTSUNNY   71  61  70 E6        30.15R
HONDO          MOSUNNY   71  64  78 E6        30.13S
*UVALDE        MOSUNNY   67  62  85 NE5       30.14R
DEL RIO        MOSUNNY   63  61  93 E10       30.10R
LAUGHLIN AFB   CLOUDY    64  59  85 SE10      30.11R
CARRIZO SPRGS  SUNNY     64  61  88 SE5       30.11R
*EAGLE PASS    NOT AVBL
$$

TXZ173-191>194-202-209-217>225-228-191600-
CENTRAL AND SOUTH CENTRAL TEXAS

CITY           SKY/WX    TMP DP  RH WIND       PRES   REMARKS
GEORGETOWN     CLOUDY    64  60  87 CALM      30.19R
AUSTIN/BERGSTM PTSUNNY   66  62  87 NE3       30.15R
AUSTIN/MABRY   CLOUDY    68  62  81 SE6       30.17R
*AUSTIN/EXEC   CLOUDY    66  63  88 E6        30.17R
*LAGO VISTA    CLOUDY    67  63  87 CALM      30.18R
SAN MARCOS     CLOUDY    69  63  81 E6        30.16
NEW BRAUNFELS  PTSUNNY   70  62  76 NE7       30.14R
RANDOLPH AFB   PTSUNNY   68  62  82 E3        30.14R
PT SAN ANTONIO MOSUNNY   69  62  80 E3        30.12R
SAN ANTONIO    PTSUNNY   69  61  75 CALM      30.14R
STINSON FIELD  CLOUDY    71  63  75 E6        30.12R
*LA GRANGE     PTSUNNY   72  65  78 CALM      30.13R
*GIDDINGS      PTSUNNY   66  60  81 CALM      30.16R
*GONZALES      PTSUNNY   69  68  97 E3        30.14R
$$

TXZ163>164-176>182-195>201-210>213-226-227-235-191600-
SOUTHEAST TEXAS

CITY           SKY/WX    TMP DP  RH WIND       PRES   REMARKS
COLLEGE STN    PTSUNNY   71  62  73 E6        30.16R
*BRYAN         PTSUNNY   67  61  79 MISG      30.18R
*CALDWELL      NOT AVBL
*CROCKETT        N/A     66  61  82 E6        30.22R
*BRENHAM       PTSUNNY   72  65  78 CALM      30.15S
HUNTSVILLE     CLOUDY    70  63  78 E6        30.17R
CONROE         MOSUNNY   71  65  81 E8        30.17R
HOUSTON BUSH   MOSUNNY   74  66  76 E7        30.15R
HOUSTON HOBBY  MOSUNNY   78  64  61 E8        30.14R
*HOUSTON SW AP SUNNY     76  67  72 E7        30.14S
PEARLAND       SUNNY     79  65  62 E7        30.15R
HOUSTON HOOKS  SUNNY     74  66  76 E5        30.15S
ELLINGTON FLD  MOSUNNY   73  64  73 NE6       30.15R
SUGAR LAND     SUNNY     77  65  66 E7        30.14R
*HOUSTON EXEC  SUNNY     73  64  73 E9        30.16R
*CLEVELAND MUN SUNNY     68  63  82 CALM      30.19R
*WHARTON       SUNNY     74  63  69 NE3       30.14R
*COLUMBUS      FAIR      72  64  75 W6        30.15R
*EAGLE LAKE    NOT AVBL
$$

TXZ214>216-236>238-191600-
THE UPPER TEXAS COAST

CITY           SKY/WX    TMP DP  RH WIND       PRES   REMARKS
*ORANGE        SUNNY     71  64  78 E7        30.20R
PORT ARTHUR    SUNNY     74  64  71 E9        30.16R
GALVESTON      MOSUNNY   81  67  62 E12       30.14R
ANGLETON       MOSUNNY   79  67  66 NE7       30.13R
*BAY CITY      SUNNY     76  67  74 NE7       30.11S
PALACIOS       SUNNY     76  66  71 NE6       30.11R
$$

TXZ229>234-239>247-191600-
TEXAS COASTAL BEND AND RIO GRANDE PLAINS

CITY           SKY/WX    TMP DP  RH WIND       PRES   REMARKS
VICTORIA       SUNNY     75  67  76 E7        30.11S
*BEEVILLE      MOSUNNY   73  69  87 NE5       30.11R
ROCKPORT       SUNNY     79  68  69 NE9       30.08R
*PORT ARANSAS  NOT AVBL
*PORT LAVACA   NOT AVBL
*INGLESIDE     NOT AVBL
CORPUS CHRISTI PTSUNNY   77  69  76 N6        30.08R
CORPUS NAS     NOT AVBL
*ROBSTOWN      MOSUNNY   73  67  80 NE3       30.09R
ALICE          MOSUNNY   75  66  73 NE8       30.09R
KINGSVILLE NAS NOT AVBL
COTULLA        SUNNY     71  63  75 NE5       30.11R
*FAITH RANCH   SUNNY     70  66  88 SE7       30.11R
LAREDO         SUNNY     71  64  78 CALM      30.11R
$$

TXZ248>255-191600-
DEEP SOUTH TEXAS

CITY           SKY/WX    TMP DP  RH WIND       PRES   REMARKS
BROWNSVILLE    SUNNY     79  71  76 N3        30.07R
PORT ISABEL    PTSUNNY   78  69  73 NW6       30.06R
*SOUTH PADRE   NOT AVBL
HARLINGEN      SUNNY     77  70  79 N5        30.06R
*HEBBRONVILLE  SUNNY     70  64  81 CALM      30.11R
MCALLEN        SUNNY     76  66  71 N3        30.08R
*WESLACO       SUNNY     72  67  82 CALM      30.07R
FALFURRIAS     MOSUNNY   75  66  73 CALM      30.08R
EDINBURG       SUNNY     72  65  79 CALM      30.08S
*ZAPATA        SUNNY     73  64  75 CALM      30.08R
$$

TXZ213>215-236>238-242>244-246-247-251-254-255-191600-
CMAN STATIONS

STATION/POSITION TIME  TEMP    WIND        PRES    WAVE
                       AIR SEA DIR/SP/G            HT/PER
                 (UTC) (F)     (DEG/KT/KT) (MB)    (FT/S)
SABINE PASS      1448   72 77   50/ 10/ 13 1023.0
SEA RIM ST PARK  1500   74      60/ 12/ 14 1021.9
NORTH JETTY/GLS  1436      76   70/ 11/ 13 1020.0
EAGLE POINT      1448   72 73   70/  9/ 10 1020.8
MORGANS POINT    1448   73 77   70/  9/ 11 1020.7
PORT O`CONNOR    1448   72 75   30/ 10/ 11 1018.9
MALAQUITE BEACH  1448   79 78   70/  8/ 10 1017.9
BAFFIN BAY       1448   74 75  330/  5/  5 1018.4
PORT ISABEL      1448   74 77  340/  7/  8 1017.8
$$




USA.gov is the U.S. government's official web portal to all federal, state and local government web resources and services.